Flight Track Log - Related Links

Times and Time Zones

All times are in EDT time to prevent confusion due to time zone crossing. See the RPA4233 flight status page for this flight to view local times or setup timezone preferences in your user account.

Time Position Orientation Groundspeed Altitude Reporting Facility
EDT Latitude Longitude Course Direction KTS MPH feet Rate Location/Type
Fri 08:05:49 PM 41.9833 -87.8833 37° Northeast 149 171 1,800  Level Chicago TRACON
Fri 08:06:49 PM 42.0333 -87.8333 37° Northeast 215 247 3,700 1,600 Climbing Chicago TRACON
Fri 08:07:49 PM 42.1000 -87.8000 20° North 271 312 5,000 1,603 Climbing Chicago TRACON
Fri 08:09:15 PM 42.2028 -87.8147 354° North 272 313 7,600 2,295 Climbing Chicago Center
Fri 08:10:18 PM 42.2883 -87.8186 358° North 283 326 10,700 2,688 Climbing Chicago Center
Fri 08:11:20 PM 42.3742 -87.8158 North 297 342 13,200 2,081 Climbing Chicago Center
Fri 08:12:22 PM 42.4642 -87.7947 10° North 326 375 15,000 1,887 Climbing Chicago Center
Fri 08:13:24 PM 42.5600 -87.7683 11° North 344 396 17,100 1,839 Climbing Chicago Center
Fri 08:14:26 PM 42.6283 -87.6636 48° Northeast 372 428 18,800 1,694 Climbing Chicago Center
Fri 08:15:28 PM 42.6653 -87.5225 70° East 393 452 20,600 1,694 Climbing Chicago Center
Fri 08:16:30 PM 42.7117 -87.3469 70° East 417 480 22,300 1,161 Climbing Chicago Center
Fri 08:17:32 PM 42.7514 -87.1933 71° East 433 498 23,000 336 Climbing Chicago Center
Fri 08:18:35 PM 42.7900 -87.0408 71° East 432 497 23,000  Level Chicago Center
Fri 08:19:37 PM 42.8328 -86.8883 69° East 431 496 23,000  Level Chicago Center
Fri 08:20:39 PM 42.8714 -86.7361 71° East 430 495 23,000  Level Chicago Center
Fri 08:21:41 PM 42.9106 -86.5825 71° East 430 495 23,000  Level Chicago Center
Fri 08:22:43 PM 42.9575 -86.3994 71° East 430 495 23,000  Level Chicago Center
Fri 08:23:45 PM 42.9969 -86.2450 71° East 430 495 23,000  Level Chicago Center
Fri 08:24:47 PM 43.0353 -86.0919 71° East 429 494 23,000  Level Chicago Center
Fri 08:25:49 PM 43.0758 -85.9269 71° East 420 483 23,000  Level Chicago Center
Fri 08:26:52 PM 43.1144 -85.7708 71° East 427 491 23,000  Level Chicago Center
Fri 08:27:54 PM 43.1519 -85.6178 71° East 427 491 23,000  Level Chicago Center
Fri 08:28:56 PM 43.1894 -85.4642 71° East 426 490 23,000  Level Chicago Center
Fri 08:29:58 PM 43.2272 -85.3114 71° East 426 490 23,000  Level Chicago Center
Fri 08:31:00 PM 43.2350 -85.1528 86° East 422 486 23,000  Level Chicago Center
Fri 08:32:02 PM 43.2006 -84.9653 104° East 422 486 23,000  Level Chicago Center
Fri 08:33:04 PM 43.1714 -84.8069 104° East 426 490 23,000  Level Chicago Center
Fri 08:34:06 PM 43.1417 -84.6481 104° East 427 491 23,000  Level Chicago Center
Fri 08:35:09 PM 43.1108 -84.4883 105° East 431 496 23,000 -528 Level Chicago Center
Fri 08:36:11 PM 43.0753 -84.3322 107° East 431 496 21,900 -1,694 Descending Chicago Center
Fri 08:37:13 PM 43.0208 -84.1958 119° Southeast 410 472 19,500 -2,419 Descending Chicago Center
Fri 08:38:15 PM 42.9600 -84.0406 118° Southeast 388 447 16,900 -2,343 Descending Chicago Center
Fri 08:38:58 PM 42.9222 -83.9514 120° Southeast 374 430 15,400 -2,118 Descending Cleveland Center
Fri 08:39:40 PM 42.8892 -83.8633 117° Southeast 364 419 13,900 -2,100 Descending Cleveland Center
Fri 08:39:58 PM 42.8736 -83.8272 120° Southeast 350 403 13,300 -1,742 Descending Cleveland Center
Fri 08:40:42 PM 42.8428 -83.7508 119° Southeast 344 396 12,100 -1,164 Descending Cleveland Center
Fri 08:41:05 PM 42.8108 -83.7236 148° Southeast 319 367 12,000 -97 Descending Cleveland Center
Fri 08:41:44 PM 42.7650 -83.6936 154° Southeast 322 371 12,000  Level Cleveland Center
Fri 08:42:00 PM 42.7369 -83.6758 155° Southeast 318 366 12,000  Level Cleveland Center
Fri 08:42:45 PM 42.6850 -83.6450 156° South 318 366 12,000  Level Cleveland Center
Fri 08:43:01 PM 42.6547 -83.6297 160° South 318 366 12,000  Level Cleveland Center
Fri 08:43:56 PM 42.5778 -83.5958 162° South 317 365 12,000  Level Cleveland Center
Fri 08:44:49 PM 42.5167 -83.5728 164° South 318 366 12,000  Level Cleveland Center
Fri 08:44:57 PM 42.4925 -83.5633 164° South 316 364 12,000 -290 Level Cleveland Center
Fri 08:45:51 PM 42.4333 -83.5417 165° South 314 361 11,700 -545 Descending Cleveland Center
Fri 08:45:52 PM 42.4192 -83.5358 163° South 304 350 11,500 -764 Descending Cleveland Center
Fri 08:46:46 PM 42.3478 -83.5114 166° South 284 327 11,000 -500 Descending Cleveland Center
Fri 08:46:52 PM 42.3428 -83.5078 152° Southeast 286 329 11,000 -492 Level Cleveland Center
Fri 08:47:47 PM 42.2744 -83.4839 165° South 243 280 10,500 -581 Descending Cleveland Center
Fri 08:47:54 PM 42.2678 -83.4811 163° South 281 323 10,400 -655 Descending Cleveland Center
Fri 08:48:42 PM 42.2256 -83.4911 190° South 173 199 9,900 -774 Descending Cleveland Center
Fri 08:48:56 PM 42.2203 -83.4964 217° Southwest 195 224 9,600 -1,522 Descending Cleveland Center
Fri 08:49:49 PM 42.1789 -83.5267 208° Southwest 182 209 8,200 -1,574 Descending Cleveland Center
Fri 08:49:57 PM 42.1756 -83.5314 226° Southwest 185 213 8,000 -222 Descending Cleveland Center
Fri 08:50:43 PM 42.1403 -83.5633 214° Southwest 184 212 8,000  Level Cleveland Center
Fri 08:50:59 PM 42.1319 -83.5692 207° Southwest 185 213 8,000 -358 Level Cleveland Center
Fri 08:51:50 PM 42.0931 -83.6044 214° Southwest 182 209 7,600 -581 Descending Cleveland Center
Fri 08:52:01 PM 42.0861 -83.6086 204° Southwest 184 212 7,400 -1,612 Descending Cleveland Center
Fri 08:52:57 PM 42.0444 -83.6339 204° Southwest 189 217 5,800 -1,672 Descending Cleveland Center
Fri 08:53:02 PM 42.0419 -83.6339 180° South 191 220 5,700 -1,574 Descending Cleveland Center
Fri 08:53:58 PM 42.0175 -83.5767 120° Southeast 177 204 4,200 -1,452 Descending Cleveland Center
Fri 08:54:04 PM 42.0181 -83.5767 360° North 183 211 4,200 -182 Level Cleveland Center
Fri 08:55:04 PM 42.0372 -83.5147 67° East 171 197 4,000 -197 Descending Cleveland Center
Fri 08:55:05 PM 42.0350 -83.5208 244° Southwest 179 206 4,000 -109 Level Cleveland Center
Fri 08:55:59 PM 42.0694 -83.4800 41° Northeast 167 192 3,900  Descending Cleveland Center
Fri 08:56:07 PM 42.0678 -83.4814 212° Southwest 181 208 4,000 -1,082 Climbing Cleveland Center
Fri 08:57:00 PM 42.1092 -83.4519 28° Northeast 164 189 2,800 -1,180 Descending Cleveland Center
Fri 08:57:08 PM 42.1089 -83.4519 180° South 173 199 2,800 -686 Level Cleveland Center
Fri 08:58:10 PM 42.1447 -83.4264 28° Northeast 161 185 2,000 -850 Descending Cleveland Center
Fri 08:59:01 PM 42.1783 -83.3997 30° Northeast 138 159 1,200 -885 Descending Cleveland Center
Fri 08:59:11 PM 42.1836 -83.3975 17° North 142 163 1,100 -333 Descending Cleveland Center
Fri 09:00:13 PM 42.2150 -83.3747 28° Northeast 140 161 800 -290 Descending Cleveland Center

Login

Don't have an account? Register now (free) for customized features, flight alerts, and more!